Showing default

CENTISPACE-1 S13, 62582

Orbit data source: Space-Track

CENTISPACE-1 S13, 62582 is a payload satellite owned by Centispace (CN) in LEO that was launched on Mon, 13 Jan 2025 UTC via a JIELONG-3 launch vehicle from the Yellow Sea Launch Area, China (YSLA). Payload-class satellites include a variety of spacecraft equipped with specific instruments for various scientific and technological missions. These include communications satellites like Starlink; space stations such as the ISS; scientific satellites like the Hubble; Earth observation satellites from companies like Planet Labs, Umbra, and HawkEye 360; GPS; miniature CubeSats for education and research; and military/defense satellites.

Loading next visibility...
Identifier
62582, 2025-007H
Orbit
LEO
Country
Flag of CNCN / PRC
Related business
Manufacturer
DFH Shenzhen
Mission
Operational Commercial Nav/Com
Bus & Motor
WK01, Unknown motor
Mass
140 kg wet, 140 kg dry
Launch date (UTC)
2025-01-13 (1 year ago)
Launch vehicle
JIELONG-3
Launch site
Yellow Sea Launch Area, China (YSLA)
Object type
Payload
Rocket body
Debris
Shape & HBR
Box + 2 Pan, 1.0 m
Radar Cross Section
0.833 m², Medium (>0.1 m² and < 1m²)

Expand to show TLE details & history
Last TLE update: 6 hours ago

TLE from 6 hours ago
0 CENTISPACE-1 S13
1 62582U 25007H   26124.49709637 -.00000084  00000-0  53973-4 0  9991
2 62582  54.9801  84.2776 0011173   8.3211 351.7929 13.80598772 68699
Epoch: 2026-05-04T11:55Z
TLE epoch observation values (Epoch: 2026-05-04T11:55:49.126Z)
Latitude
0.00002°
Longitude
42.93748°
Altitude
954.668 km
Speed
7.379 km/s
True Right ascension
05h 37m 06s
True Declination
0° 00' 00"
Sunlit
Object was in daylight at epoch
Visualization orbit readout
Latitude
Unknown
Longitude
Unknown
Altitude
Unknown
Speed
Unknown
Apparent Right ascension
Unknown
Apparent Declination
Unknown
Sunlit
N/A
Visualization observer readout
Local Sidereal Time
01:38:40
Azimuth
Unknown
Elevation
Unknown
Doppler factor
Unknown
Orbital elements
Apogee altitude
969.933 km
Perigee altitude
953.531 km
Semi-major axis
7,339.869 km
Eccentricity
0.00112
Inclination
54.9801°
RAAN
84.2776°
Arg. of periapsis
8.3211°
True anomaly
351.7746°
Mean anomaly
351.7929°
Eccentric anomaly
351.78375°
Mean motion
3.45152 °/min
Orbital period
104.3 mins
BSTAR
0.000053973
Loading maneuver chart data...
Computing Atmospheric mass density...
Loading historical data...
Loading historical data...
Loading historical data...
Loading historical data...
Loading historical data...
Loading historical data...
Loading historical data...

Documentation

Showing up to 5 results
|